,,Stat6,,Stat2,,Stat8,,Stat9,,Stat10,,Wind1,,Wind1,
time,status,PA1M_AVG,status,PR1M_SUM,status,RH1M_AVG,status,SR1M_AVG,status,TA1M_AVG,status,W1dAve1m,status,W1sAve1m,
2008-09-14, 07:27:00,INVALID - VALUE NOT AVAILABLE,0,INVALID - VALUE NOT AVAILABLE,0,INVALID - VALUE NOT AVAILABLE,0,INVALID - VALUE NOT AVAILABLE,0,INVALID - VALUE NOT AVAILABLE,0,INVALID - VALUE NOT AVAILABLE,360,INVALID - VALUE NOT AVAILABLE,0,
2008-09-14, 07:28:00,VALID,917.578,VALID,0,VALID,93.9983,VALID,135.167,VALID,20.4081,VALID,161,VALID,1.1875,
2008-09-14, 07:29:00,VALID,917.586,VALID,0,VALID,93.5227,VALID,136.492,VALID,20.4186,VALID,151,VALID,1.92827,
2008-09-14, 07:30:00,VALID,917.599,VALID,0,VALID,93.5774,VALID,137.935,VALID,20.4421,VALID,143,VALID,1.38765,
2008-09-14, 07:31:00,VALID,917.629,VALID,0,VALID,93.6829,VALID,134.811,VALID,20.4546,VALID,158,VALID,1.35995,
2008-09-14, 07:32:00,VALID,917.642,VALID,0,VALID,93.7401,VALID,126.932,VALID,20.4908,VALID,166,VALID,0.759233,
2008-09-14, 07:33:00,VALID,917.662,VALID,0,VALID,93.7351,VALID,119.053,VALID,20.53,VALID,155,VALID,0.616642,
2008-09-14, 07:34:00,VALID,917.695,VALID,0,VALID,93.6664,VALID,132.518,VALID,20.5587,VALID,154,VALID,0.899858,
2008-09-14, 07:35:00,VALID,917.706,VALID,0,VALID,93.6613,VALID,146.833,VALID,20.5979,VALID,147,VALID,0.242551,
2008-09-14, 07:36:00,VALID,917.725,VALID,0,VALID,93.3053,VALID,149.907,VALID,20.6433,VALID,167,VALID,1.0322,
2008-09-14, 07:37:00,VALID,917.724,VALID,0,VALID,92.9174,VALID,153.422,VALID,20.6691,VALID,151,VALID,0.975818,
2008-09-14, 07:38:00,VALID,917.733,VALID,0,VALID,92.92,VALID,157.684,VALID,20.6853,VALID,156,VALID,0.464753,
2008-09-14, 07:39:00,VALID,917.739,VALID,0,VALID,93.1845,VALID,160.452,VALID,20.7537,VALID,134,VALID,0.448047,
2008-09-14, 07:40:00,VALID,917.734,VALID,0,VALID,92.906,VALID,163.305,VALID,20.8024,VALID,169,VALID,0.00241815,
2008-09-14, 07:41:00,VALID,917.734,VALID,0,VALID,92.5321,VALID,167.006,VALID,20.874,VALID,148,VALID,0.375186,
2008-09-14, 07:42:00,VALID,917.743,VALID,0,VALID,92.5321,VALID,165.325,VALID,20.9522,VALID,145,VALID,0.285714,
2008-09-14, 07:43:00,VALID,917.748,VALID,0,VALID,91.5771,VALID,159.841,VALID,20.9617,VALID,135,VALID,0.778888,
2008-09-14, 07:44:00,VALID,917.751,VALID,0,VALID,91.8594,VALID,158.482,VALID,20.9876,VALID,144,VALID,0,
2008-09-14, 07:45:00,VALID,917.769,VALID,0,VALID,92.0642,VALID,158.244,VALID,21.0688,VALID,145,VALID,0,
2008-09-14, 07:46:00,VALID,917.786,VALID,0,VALID,91.5924,VALID,158.55,VALID,21.134,VALID,146,VALID,0,
2008-09-14, 07:47:00,VALID,917.792,VALID,0,VALID,91.7272,VALID,159.722,VALID,21.1727,VALID,145,VALID,0,
2008-09-14, 07:48:00,VALID,917.803,VALID,0,VALID,91.6712,VALID,161.861,VALID,21.2343,VALID,166,VALID,0,
2008-09-14, 07:49:00,VALID,917.818,VALID,0,VALID,91.7475,VALID,164.935,VALID,21.2925,VALID,170,VALID,0,
2008-09-14, 07:50:00,VALID,917.827,VALID,0,VALID,91.7119,VALID,169.757,VALID,21.3709,VALID,170,VALID,0,
2008-09-14, 07:51:00,VALID,917.838,VALID,0,VALID,91.319,VALID,183.325,VALID,21.4583,VALID,168,VALID,0,
2008-09-14, 07:52:00,VALID,917.85,VALID,0,VALID,90.762,VALID,190.032,VALID,21.5132,VALID,178,VALID,0,
2008-09-14, 07:53:00,VALID,917.857,VALID,0,VALID,90.345,VALID,195.398,VALID,21.507,VALID,148,VALID,0,
2008-09-14, 07:54:00,VALID,917.882,VALID,0,VALID,90.0894,VALID,210.087,VALID,21.4286,VALID,127,VALID,0.255609,
2008-09-14, 07:55:00,VALID,917.885,VALID,0,VALID,90.7506,VALID,208.898,VALID,21.3958,VALID,136,VALID,0.616629,
2008-09-14, 07:56:00,VALID,917.904,VALID,0,VALID,91.361,VALID,223.111,VALID,21.4516,VALID,160,VALID,0.0328852,
2008-09-14, 07:57:00,VALID,917.915,VALID,0,VALID,91.258,VALID,241.569,VALID,21.494,VALID,144,VALID,0.117989,
2008-09-14, 07:58:00,VALID,917.947,VALID,0,VALID,90.3399,VALID,258.278,VALID,21.5457,VALID,163,VALID,0.868253,
2008-09-14, 07:59:00,VALID,917.959,VALID,0,VALID,90.4492,VALID,266.293,VALID,21.5592,VALID,172,VALID,0.857599,
2008-09-14, 08:00:00,VALID,917.973,VALID,0,VALID,90.4925,VALID,265.699,VALID,21.6077,VALID,179,VALID,0.738368,
2008-09-14, 08:01:00,VALID,917.973,VALID,0,VALID,89.8681,VALID,289.404,VALID,21.6988,VALID,186,VALID,0.264137,
2008-09-14, 08:02:00,VALID,917.977,VALID,0,VALID,89.6265,VALID,285.889,VALID,21.8352,VALID,188,VALID,0.833203,
2008-09-14, 08:03:00,VALID,917.983,VALID,0,VALID,88.819,VALID,323.519,VALID,21.9323,VALID,195,VALID,0.42294,
2008-09-14, 08:04:00,VALID,917.983,VALID,0,VALID,88.5444,VALID,340.109,VALID,22.0565,VALID,185,VALID,0.579215,
2008-09-14, 08:05:00,VALID,917.99,VALID,0,VALID,87.2283,VALID,315.725,VALID,22.1044,VALID,178,VALID,1.10974,
2008-09-14, 08:06:00,VALID,918,VALID,0,VALID,87.5067,VALID,296.349,VALID,22.1501,VALID,178,VALID,0.875,
2008-09-14, 08:07:00,VALID,918.018,VALID,0,VALID,87.5106,VALID,283.41,VALID,22.231,VALID,213,VALID,0.173692,
2008-09-14, 08:08:00,VALID,918.03,VALID,0,VALID,87.3758,VALID,267.295,VALID,22.3284,VALID,173,VALID,0.729048,
2008-09-14, 08:09:00,VALID,918.035,VALID,0,VALID,87.2283,VALID,261.98,VALID,22.3839,VALID,188,VALID,0.856286,
2008-09-14, 08:10:00,VALID,918.054,VALID,0,VALID,86.4793,VALID,261.658,VALID,22.4037,VALID,175,VALID,1.49167,
2008-09-14, 08:11:00,VALID,918.047,VALID,0,VALID,85.9478,VALID,255.001,VALID,22.2346,VALID,171,VALID,1.27271,
2008-09-14, 08:12:00,VALID,918.054,VALID,0,VALID,87.5017,VALID,253.337,VALID,22.2015,VALID,178,VALID,0.72154,
2008-09-14, 08:13:00,VALID,918.057,VALID,0,VALID,87.7127,VALID,263.797,VALID,22.2267,VALID,178,VALID,1.25568,
2008-09-14, 08:14:00,VALID,918.072,VALID,0,VALID,87.2079,VALID,255.426,VALID,22.1815,VALID,185,VALID,1.25038,
2008-09-14, 08:15:00,VALID,918.077,VALID,0,VALID,87.6479,VALID,257.378,VALID,22.1614,VALID,180,VALID,0.966146,
2008-09-14, 08:16:00,VALID,918.083,VALID,0,VALID,87.4215,VALID,254.373,VALID,22.2072,VALID,183,VALID,0.854048,
2008-09-14, 08:17:00,VALID,918.081,VALID,0,VALID,87.4622,VALID,246.477,VALID,22.2851,VALID,183,VALID,0.830669,
2008-09-14, 08:18:00,VALID,918.089,VALID,0,VALID,87.9696,VALID,238.734,VALID,22.3365,VALID,215,VALID,0.631771,
2008-09-14, 08:19:00,VALID,918.108,VALID,0,VALID,87.3389,VALID,238.954,VALID,22.3725,VALID,159,VALID,0.955221,
2008-09-14, 08:20:00,VALID,918.113,VALID,0,VALID,87.0833,VALID,251.673,VALID,22.3952,VALID,97,VALID,0.315104,
2008-09-14, 08:21:00,VALID,918.138,VALID,0,VALID,88.0942,VALID,253.099,VALID,22.5257,VALID,171,VALID,0.869673,
2008-09-14, 08:22:00,VALID,918.132,VALID,0,VALID,87.6848,VALID,253.235,VALID,22.5481,VALID,169,VALID,0.92793,
2008-09-14, 08:23:00,VALID,918.147,VALID,0,VALID,87.859,VALID,253.184,VALID,22.5806,VALID,186,VALID,0.650799,
2008-09-14, 08:24:00,VALID,918.144,VALID,0,VALID,87.2155,VALID,253.575,VALID,22.6107,VALID,179,VALID,1.07304,
2008-09-14, 08:25:00,VALID,918.14,VALID,0,VALID,86.9434,VALID,253.49,VALID,22.6004,VALID,170,VALID,0.840402,
2008-09-14, 08:26:00,VALID,918.158,VALID,0,VALID,87.6568,VALID,252.556,VALID,22.6328,VALID,178,VALID,0.75465,
2008-09-14, 08:27:00,VALID,918.177,VALID,0,VALID,87.9887,VALID,252.318,VALID,22.6954,VALID,167,VALID,0.463655,
2008-09-14, 08:28:00,VALID,918.186,VALID,0,VALID,86.6039,VALID,252.811,VALID,22.7001,VALID,153,VALID,1.05926,
2008-09-14, 08:29:00,VALID,918.195,VALID,0,VALID,86.5874,VALID,254.203,VALID,22.6543,VALID,144,VALID,0.615327,
2008-09-14, 08:30:00,VALID,918.207,VALID,0,VALID,87.2155,VALID,257.005,VALID,22.667,VALID,169,VALID,0.565104,
2008-09-14, 08:31:00,VALID,918.208,VALID,0,VALID,86.8099,VALID,262.031,VALID,22.7228,VALID,153,VALID,0.0932292,
2008-09-14, 08:32:00,VALID,918.211,VALID,0,VALID,87.0312,VALID,278.01,VALID,22.8167,VALID,161,VALID,0.203683,
2008-09-14, 08:33:00,VALID,918.229,VALID,0,VALID,86.609,VALID,272.967,VALID,22.9398,VALID,178,VALID,0.0640625,
2008-09-14, 08:34:00,VALID,918.222,VALID,0,VALID,85.9261,VALID,274.886,VALID,22.9921,VALID,125,VALID,0.325149,
2008-09-14, 08:35:00,VALID,918.223,VALID,0,VALID,84.9966,VALID,279.08,VALID,23.0018,VALID,136,VALID,0.875977,
2008-09-14, 08:36:00,VALID,918.241,VALID,0,VALID,84.1484,VALID,281.814,VALID,22.8716,VALID,171,VALID,0.818638,
2008-09-14, 08:37:00,VALID,918.244,VALID,0,VALID,84.8936,VALID,283.614,VALID,22.8592,VALID,156,VALID,0.569382,
2008-09-14, 08:38:00,VALID,918.276,VALID,0,VALID,85.7964,VALID,284.989,VALID,22.9177,VALID,159,VALID,0.0209517,
2008-09-14, 08:39:00,VALID,918.301,VALID,0,VALID,86.3941,VALID,283.987,VALID,23.0606,VALID,164,VALID,0.339748,
2008-09-14, 08:40:00,VALID,918.343,VALID,0,VALID,84.2883,VALID,273.306,VALID,23.1468,VALID,162,VALID,0.846768,
2008-09-14, 08:41:00,VALID,918.373,VALID,0,VALID,82.7764,VALID,273.595,VALID,23.1696,VALID,173,VALID,0.149346,
2008-09-14, 08:42:00,VALID,918.412,VALID,0,VALID,83.3664,VALID,289.285,VALID,23.2968,VALID,194,VALID,0.912847,
2008-09-14, 08:43:00,VALID,918.438,VALID,0,VALID,84.3036,VALID,315.283,VALID,23.376,VALID,211,VALID,0.642624,
2008-09-14, 08:44:00,VALID,918.474,VALID,0,VALID,84.2451,VALID,303.397,VALID,23.4539,VALID,213,VALID,0.247582,
2008-09-14, 08:45:00,VALID,918.494,VALID,0,VALID,84.2413,VALID,295.738,VALID,23.5777,VALID,199,VALID,0.371449,
2008-09-14, 08:46:00,VALID,918.502,VALID,0,VALID,83.5368,VALID,292.716,VALID,23.6583,VALID,177,VALID,0.641533,
2008-09-14, 08:47:00,VALID,918.526,VALID,0,VALID,81.9981,VALID,292.223,VALID,23.6485,VALID,192,VALID,0.936047,
2008-09-14, 08:48:00,VALID,918.546,VALID,0,VALID,82.0719,VALID,293.751,VALID,23.6651,VALID,203,VALID,1.04688,
2008-09-14, 08:49:00,VALID,918.546,VALID,0,VALID,82.8463,VALID,296.315,VALID,23.6521,VALID,213,VALID,0.955729,
2008-09-14, 08:50:00,VALID,918.546,VALID,0,VALID,82.2474,VALID,301.155,VALID,23.6586,VALID,202,VALID,1.1343,
2008-09-14, 08:51:00,VALID,918.549,VALID,0,VALID,82.3784,VALID,307.115,VALID,23.578,VALID,182,VALID,1.16642,
2008-09-14, 08:52:00,VALID,918.571,VALID,0,VALID,82.9582,VALID,314.349,VALID,23.5026,VALID,176,VALID,0.935156,
2008-09-14, 08:53:00,VALID,918.58,VALID,0,VALID,83.6639,VALID,332.4,VALID,23.451,VALID,154,VALID,1.08251,
2008-09-14, 08:54:00,VALID,918.576,VALID,0,VALID,84.1001,VALID,341.824,VALID,23.3435,VALID,156,VALID,0.53924,
2008-09-14, 08:55:00,VALID,918.585,VALID,0,VALID,84.9178,VALID,337.019,VALID,23.3337,VALID,167,VALID,0.791548,
2008-09-14, 08:56:00,VALID,918.581,VALID,0,VALID,85.0182,VALID,333.758,VALID,23.3954,VALID,195,VALID,0.875545,
2008-09-14, 08:57:00,VALID,918.59,VALID,0,VALID,83.243,VALID,335.049,VALID,23.5192,VALID,206,VALID,0.982701,
2008-09-14, 08:58:00,VALID,918.615,VALID,0,VALID,83.36,VALID,335.728,VALID,23.6231,VALID,202,VALID,0.980469,
2008-09-14, 08:59:00,VALID,918.624,VALID,0,VALID,83.0294,VALID,327.458,VALID,23.7171,VALID,191,VALID,1.08394,
2008-09-14, 09:00:00,VALID,918.638,VALID,0,VALID,83.5342,VALID,329.36,VALID,23.7593,VALID,158,VALID,0.873666,
2008-09-14, 09:01:00,VALID,918.646,VALID,0,VALID,83.5139,VALID,330.039,VALID,23.7398,VALID,199,VALID,0.875,
2008-09-14, 09:02:00,VALID,918.648,VALID,0,VALID,82.639,VALID,330.498,VALID,23.6887,VALID,147,VALID,1.29859,
2008-09-14, 09:03:00,VALID,918.656,VALID,0,VALID,84.638,VALID,333.351,VALID,23.5809,VALID,156,VALID,0.780382,
2008-09-14, 09:04:00,VALID,918.665,VALID,0,VALID,84.9279,VALID,332.553,VALID,23.6149,VALID,166,VALID,0.484738,
2008-09-14, 09:05:00,VALID,918.668,VALID,0,VALID,84.0111,VALID,342.707,VALID,23.7064,VALID,197,VALID,0.904474,
2008-09-14, 09:06:00,VALID,918.675,VALID,0,VALID,83.3537,VALID,340.737,VALID,23.7844,VALID,180,VALID,1.18532,
2008-09-14, 09:07:00,VALID,918.664,VALID,0,VALID,83.168,VALID,352.539,VALID,23.7058,VALID,154,VALID,1.17224,
2008-09-14, 09:08:00,VALID,918.665,VALID,0,VALID,83.299,VALID,359.06,VALID,23.5859,VALID,179,VALID,1.79922,
2008-09-14, 09:09:00,VALID,918.665,VALID,0,VALID,82.9824,VALID,367.058,VALID,23.5596,VALID,175,VALID,1.24355,
2008-09-14, 09:10:00,VALID,918.666,VALID,0,VALID,83.346,VALID,346.137,VALID,23.6518,VALID,225,VALID,0.0615234,
2008-09-14, 09:11:00,VALID,918.666,VALID,0,VALID,82.8145,VALID,341.111,VALID,23.8207,VALID,184,VALID,0.748197,
2008-09-14, 09:12:00,VALID,918.663,VALID,0,VALID,81.6828,VALID,347.292,VALID,23.9188,VALID,185,VALID,0.613181,
2008-09-14, 09:13:00,VALID,918.652,VALID,0,VALID,81.8379,VALID,347.122,VALID,24.0302,VALID,190,VALID,0.468164,
2008-09-14, 09:14:00,VALID,918.653,VALID,0,VALID,81.9257,VALID,348.481,VALID,24.1832,VALID,171,VALID,0.555069,
2008-09-14, 09:15:00,VALID,918.651,VALID,0,VALID,81.473,VALID,352.709,VALID,24.19,VALID,160,VALID,0.417882,
2008-09-14, 09:16:00,VALID,918.646,VALID,0,VALID,81.328,VALID,347.564,VALID,24.2219,VALID,141,VALID,0.471037,
2008-09-14, 09:17:00,VALID,918.649,VALID,0,VALID,80.7672,VALID,355.018,VALID,24.1793,VALID,47,VALID,0.619531,
2008-09-14, 09:18:00,VALID,918.659,VALID,0,VALID,81.4183,VALID,353.779,VALID,24.2157,VALID,87,VALID,0.200452,
2008-09-14, 09:19:00,VALID,918.653,VALID,0,VALID,80.7685,VALID,356.513,VALID,24.3752,VALID,169,VALID,0.584896,
2008-09-14, 09:20:00,VALID,918.653,VALID,0,VALID,79.7169,VALID,361.216,VALID,24.3912,VALID,64,VALID,0.793527,
2008-09-14, 09:21:00,VALID,918.688,VALID,0,VALID,80.0411,VALID,363.101,VALID,24.3259,VALID,45,VALID,0.481957,
2008-09-14, 09:22:00,VALID,918.697,VALID,0,VALID,79.5338,VALID,370.895,VALID,24.2349,VALID,96,VALID,0.862772,
2008-09-14, 09:23:00,VALID,918.714,VALID,0,VALID,80.7443,VALID,370.437,VALID,24.2313,VALID,74,VALID,0.146662,
2008-09-14, 09:24:00,VALID,918.743,VALID,0,VALID,82.0477,VALID,365.699,VALID,24.3551,VALID,76,VALID,0.365091,
2008-09-14, 09:25:00,VALID,918.765,VALID,0,VALID,81.9002,VALID,371.507,VALID,24.4718,VALID,132,VALID,0.252544,
2008-09-14, 09:26:00,VALID,918.79,VALID,0,VALID,79.0226,VALID,358.38,VALID,24.5371,VALID,167,VALID,1.1637,
2008-09-14, 09:27:00,VALID,918.816,VALID,0,VALID,78.6945,VALID,352.098,VALID,24.4721,VALID,142,VALID,1.04688,
2008-09-14, 09:28:00,VALID,918.839,VALID,0,VALID,78.0282,VALID,350.077,VALID,24.32,VALID,139,VALID,1.24727,
2008-09-14, 09:29:00,VALID,918.869,VALID,0,VALID,79.4727,VALID,350.077,VALID,24.1867,VALID,136,VALID,0.559722,
2008-09-14, 09:30:00,VALID,918.878,VALID,0,VALID,80.2014,VALID,353.167,VALID,24.2387,VALID,136,VALID,0.00560897,
2008-09-14, 09:31:00,VALID,918.897,VALID,0,VALID,79.8873,VALID,361.488,VALID,24.4373,VALID,137,VALID,0,
2008-09-14, 09:32:00,VALID,918.908,VALID,0,VALID,80.0284,VALID,410.817,VALID,24.6355,VALID,77,VALID,0.121548,
2008-09-14, 09:33:01,VALID,918.9,VALID,0,VALID,78.8369,VALID,433.758,VALID,24.7164,VALID,130,VALID,0.804142,
2008-09-14, 09:34:00,VALID,918.915,VALID,0,VALID,78.1401,VALID,427.187,VALID,24.6128,VALID,139,VALID,0.77468,
2008-09-14, 09:35:00,VALID,918.911,VALID,0,VALID,78.6615,VALID,408.729,VALID,24.6612,VALID,161,VALID,0.0483285,
2008-09-14, 09:36:00,VALID,918.903,VALID,0,VALID,78.6856,VALID,399.423,VALID,24.8763,VALID,134,VALID,0.232279,
2008-09-14, 09:37:00,VALID,918.913,VALID,0,VALID,78.8204,VALID,401.478,VALID,24.9121,VALID,162,VALID,0.854226,
2008-09-14, 09:38:00,VALID,918.926,VALID,0,VALID,78.7085,VALID,416.998,VALID,24.941,VALID,179,VALID,0.148777,
2008-09-14, 09:39:00,VALID,918.925,VALID,0,VALID,78.7034,VALID,403.329,VALID,25.1198,VALID,160,VALID,0,
2008-09-14, 09:40:00,VALID,918.952,VALID,0,VALID,78.6093,VALID,418.357,VALID,25.204,VALID,87,VALID,0.0895579,
2008-09-14, 09:41:00,VALID,918.963,VALID,0,VALID,77.6556,VALID,456.19,VALID,25.3967,VALID,85,VALID,0,
2008-09-14, 09:42:00,VALID,918.978,VALID,0,VALID,76.0954,VALID,536.645,VALID,25.5979,VALID,207,VALID,0.802539,
2008-09-14, 09:43:00,VALID,919.008,VALID,0,VALID,78.3677,VALID,479.539,VALID,25.7455,VALID,259,VALID,0.894245,
2008-09-14, 09:44:00,VALID,919.018,VALID,0,VALID,77.8514,VALID,459.943,VALID,25.6578,VALID,279,VALID,0.657203,
2008-09-14, 09:45:00,VALID,919.036,VALID,0,VALID,79.4715,VALID,431.347,VALID,25.5742,VALID,290,VALID,0.416295,
2008-09-14, 09:46:00,VALID,919.032,VALID,0,VALID,79.2795,VALID,429.649,VALID,25.5112,VALID,294,VALID,0.456364,
2008-09-14, 09:47:00,VALID,919.034,VALID,0,VALID,80.1416,VALID,446.307,VALID,25.5258,VALID,264,VALID,0.00520833,
2008-09-14, 09:48:00,VALID,919.047,VALID,0,VALID,79.7029,VALID,833.181,VALID,25.5771,VALID,214,VALID,0.441034,
2008-09-14, 09:49:00,VALID,919.046,VALID,0,VALID,78.8764,VALID,1029,VALID,25.7696,VALID,207,VALID,0.266992,
2008-09-14, 09:50:00,VALID,919.036,VALID,0,VALID,77.0249,VALID,654.764,VALID,26.0836,VALID,207,VALID,0.545922,
2008-09-14, 09:51:00,VALID,919.038,VALID,0,VALID,74.0862,VALID,668.162,VALID,26.2992,VALID,171,VALID,0.58346,
2008-09-14, 09:52:00,VALID,919.045,VALID,0,VALID,71.7401,VALID,770.59,VALID,26.3805,VALID,170,VALID,0.242543,
2008-09-14, 09:53:00,VALID,919.04,VALID,0,VALID,70.9683,VALID,765.886,VALID,26.6204,VALID,189,VALID,0.848028,
2008-09-14, 09:54:00,VALID,919.04,VALID,0,VALID,71.4782,VALID,936.119,VALID,26.6052,VALID,160,VALID,0.783296,
2008-09-14, 09:55:00,VALID,919.044,VALID,0,VALID,72.6112,VALID,722.195,VALID,26.4654,VALID,170,VALID,1.02525,
2008-09-14, 09:56:00,VALID,919.047,VALID,0,VALID,72.0695,VALID,693.497,VALID,26.3678,VALID,138,VALID,0.481213,
2008-09-14, 09:57:00,VALID,919.045,VALID,0,VALID,72.5794,VALID,632.485,VALID,26.3938,VALID,255,VALID,0.178735,
2008-09-14, 09:58:00,VALID,919.05,VALID,0,VALID,72.7027,VALID,577.484,VALID,26.6149,VALID,269,VALID,0.114583,
2008-09-14, 09:59:00,VALID,919.041,VALID,0,VALID,72.4408,VALID,888.335,VALID,26.6088,VALID,154,VALID,1.44048,
2008-09-14, 10:00:00,VALID,919.042,VALID,0,VALID,73.1325,VALID,662.354,VALID,26.2573,VALID,124,VALID,0.942073,
2008-09-14, 10:01:00,VALID,919.036,VALID,0,VALID,75.2027,VALID,742.402,VALID,26.1727,VALID,127,VALID,0.622396,
2008-09-14, 10:02:00,VALID,919.033,VALID,0,VALID,74.2795,VALID,699.916,VALID,26.3392,VALID,128,VALID,0.0512576,
2008-09-14, 10:03:00,VALID,919.026,VALID,0,VALID,72.4382,VALID,709.544,VALID,26.5473,VALID,154,VALID,1.00302,
2008-09-14, 10:04:00,VALID,919.023,VALID,0,VALID,69.7729,VALID,587.995,VALID,26.5733,VALID,222,VALID,0.906068,
2008-09-14, 10:05:00,VALID,919.019,VALID,0,VALID,68.4072,VALID,586.688,VALID,26.762,VALID,219,VALID,0.625186,
2008-09-14, 10:06:00,VALID,919.023,VALID,0,VALID,68.1949,VALID,745.255,VALID,26.7977,VALID,177,VALID,1.1375,
2008-09-14, 10:07:00,VALID,919.014,VALID,0,VALID,67.5311,VALID,853.898,VALID,26.8202,VALID,170,VALID,0.674279,
2008-09-14, 10:08:00,VALID,919.001,VALID,0,VALID,66.4706,VALID,840.432,VALID,26.8735,VALID,134,VALID,0.459077,
2008-09-14, 10:09:00,VALID,919.004,VALID,0,VALID,65.761,VALID,749.568,VALID,26.9145,VALID,173,VALID,0.977805,
2008-09-14, 10:10:00,VALID,918.987,VALID,0,VALID,64.628,VALID,791.205,VALID,27.0524,VALID,176,VALID,0.086128,
2008-09-14, 10:11:00,VALID,918.954,VALID,0,VALID,64.7412,VALID,720.412,VALID,27.3236,VALID,210,VALID,0,
2008-09-14, 10:12:00,VALID,918.956,VALID,0,VALID,65.0222,VALID,605.978,VALID,27.643,VALID,9,VALID,0.213663,
2008-09-14, 10:13:00,VALID,918.93,VALID,0,VALID,62.6926,VALID,586.993,VALID,27.8053,VALID,223,VALID,0.925781,
2008-09-14, 10:14:00,VALID,918.905,VALID,0,VALID,63.5116,VALID,719.682,VALID,27.7468,VALID,230,VALID,0.15625,
2008-09-14, 10:15:00,VALID,918.892,VALID,0,VALID,64.4869,VALID,677.943,VALID,27.7927,VALID,218,VALID,0.30625,
2008-09-14, 10:16:00,VALID,918.872,VALID,0,VALID,64.5645,VALID,709.884,VALID,27.8581,VALID,218,VALID,0.128057,
2008-09-14, 10:17:00,VALID,918.852,VALID,0,VALID,64.038,VALID,807.574,VALID,27.8877,VALID,263,VALID,0.462847,
2008-09-14, 10:18:00,VALID,918.832,VALID,0,VALID,64.7488,VALID,824.555,VALID,27.8031,VALID,332,VALID,0.669588,
2008-09-14, 10:19:00,VALID,918.835,VALID,0,VALID,65.4902,VALID,832.349,VALID,27.6954,VALID,325,VALID,0.332118,
2008-09-14, 10:20:00,VALID,918.837,VALID,0,VALID,66.365,VALID,778.911,VALID,27.6177,VALID,313,VALID,0.486861,
2008-09-14, 10:21:00,VALID,918.841,VALID,0,VALID,69.5606,VALID,908.016,VALID,27.5812,VALID,56,VALID,0.348899,
2008-09-14, 10:22:00,VALID,918.846,VALID,0,VALID,71.3434,VALID,836.017,VALID,27.7908,VALID,256,VALID,1.33054,
2008-09-14, 10:23:00,VALID,918.862,VALID,0,VALID,71.7795,VALID,844.372,VALID,27.6958,VALID,264,VALID,1.01124,
2008-09-14, 10:24:00,VALID,918.861,VALID,0,VALID,72.423,VALID,616.88,VALID,27.51,VALID,276,VALID,0.35918,
2008-09-14, 10:25:00,VALID,918.867,VALID,0,VALID,71.0153,VALID,620.191,VALID,27.416,VALID,325,VALID,0.868555,
2008-09-14, 10:26:00,VALID,918.849,VALID,0,VALID,70.9962,VALID,605.978,VALID,27.2798,VALID,270,VALID,0.732118,
2008-09-14, 10:27:00,VALID,918.843,VALID,0,VALID,71.3637,VALID,578.809,VALID,27.1789,VALID,254,VALID,0.108994,
2008-09-14, 10:28:00,VALID,918.815,VALID,0,VALID,72.2602,VALID,598.523,VALID,27.2017,VALID,247,VALID,0.707403,
2008-09-14, 10:29:00,VALID,918.796,VALID,0,VALID,71.3599,VALID,625.828,VALID,27.2801,VALID,209,VALID,0.734193,
2008-09-14, 10:30:00,VALID,918.786,VALID,0,VALID,72.0008,VALID,667.771,VALID,27.4044,VALID,229,VALID,1.14244,
2008-09-14, 10:31:00,VALID,918.763,VALID,0,VALID,72.5501,VALID,651.13,VALID,27.4366,VALID,209,VALID,0.917492,
2008-09-14, 10:32:00,VALID,918.759,VALID,0,VALID,74.4105,VALID,709.442,VALID,27.5049,VALID,270,VALID,0.885174,
2008-09-14, 10:33:00,VALID,918.747,VALID,0,VALID,72.6239,VALID,633.266,VALID,27.5183,VALID,284,VALID,0.494913,
2008-09-14, 10:34:00,VALID,918.74,VALID,0,VALID,73.7976,VALID,842.759,VALID,27.5898,VALID,255,VALID,0.283346,
2008-09-14, 10:35:00,VALID,918.736,VALID,0,VALID,73.6246,VALID,895.96,VALID,27.8342,VALID,217,VALID,0.367773,
2008-09-14, 10:36:00,VALID,918.706,VALID,0,VALID,72.5641,VALID,802.242,VALID,28.0807,VALID,292,VALID,0.184896,
2008-09-14, 10:37:00,VALID,918.705,VALID,0,VALID,71.4654,VALID,937.546,VALID,28.2304,VALID,286,VALID,0.297238,
2008-09-14, 10:38:00,VALID,918.7,VALID,0,VALID,70.4418,VALID,961.421,VALID,28.341,VALID,255,VALID,0.675145,
2008-09-14, 10:39:00,VALID,918.693,VALID,0,VALID,70.6071,VALID,989.728,VALID,28.3565,VALID,256,VALID,0.35625,
2008-09-14, 10:40:00,VALID,918.689,VALID,0,VALID,70.3541,VALID,740.687,VALID,28.3396,VALID,256,VALID,1.18187,
2008-09-14, 10:41:00,VALID,918.686,VALID,0,VALID,71.4006,VALID,665.377,VALID,28.0883,VALID,254,VALID,1.68203,
2008-09-14, 10:42:00,VALID,918.699,VALID,0,VALID,71.955,VALID,692.954,VALID,27.7211,VALID,260,VALID,1.10305,
2008-09-14, 10:43:00,VALID,918.706,VALID,0,VALID,74.0773,VALID,559.892,VALID,27.5179,VALID,310,VALID,0.116443,
2008-09-14, 10:44:00,VALID,918.72,VALID,0,VALID,74.2274,VALID,474.359,VALID,27.5273,VALID,348,VALID,0.115663,
2008-09-14, 10:45:00,VALID,918.719,VALID,0,VALID,75.3057,VALID,450.4,VALID,27.6133,VALID,4,VALID,0.595982,
2008-09-14, 10:46:00,VALID,918.726,VALID,0,VALID,74.0875,VALID,452.777,VALID,27.7018,VALID,19,VALID,0.499814,
2008-09-14, 10:48:00,VALID,918.714,VALID,0,VALID,73.4504,VALID,551.758,VALID,27.9072,VALID,17,VALID,0.83055,
2008-09-14, 10:49:00,VALID,918.709,VALID,0,VALID,73.6755,VALID,538.14,VALID,27.8851,VALID,339,VALID,0.446243,
2008-09-14, 10:50:00,VALID,918.701,VALID,0,VALID,72.7383,VALID,554.849,VALID,27.9657,VALID,266,VALID,0,
2008-09-14, 10:51:00,VALID,918.688,VALID,0,VALID,73.2571,VALID,503.533,VALID,28.0948,VALID,270,VALID,0,
2008-09-14, 10:52:00,VALID,918.692,VALID,0,VALID,72.1318,VALID,473.426,VALID,28.2813,VALID,274,VALID,0.00106534,
2008-09-14, 10:53:00,VALID,918.686,VALID,0,VALID,70.7801,VALID,468.161,VALID,28.3529,VALID,192,VALID,0.194931,
2008-09-14, 10:54:00,VALID,918.689,VALID,0,VALID,71.5595,VALID,475.684,VALID,28.2,VALID,149,VALID,0.221912,
2008-09-14, 10:55:00,VALID,918.7,VALID,0,VALID,71.3968,VALID,487.757,VALID,28.1255,VALID,179,VALID,0.0562901,
2008-09-14, 10:56:00,VALID,918.685,VALID,0,VALID,71.5634,VALID,489.235,VALID,28.1447,VALID,288,VALID,0.0125411,
2008-09-14, 10:57:00,VALID,918.702,VALID,0,VALID,72.4408,VALID,488.42,VALID,28.0966,VALID,281,VALID,0.36543,
2008-09-14, 10:58:00,VALID,918.704,VALID,0,VALID,70.6033,VALID,496.774,VALID,28.0087,VALID,267,VALID,0.992746,
2008-09-14, 10:59:00,VALID,918.701,VALID,0,VALID,71.2912,VALID,523.893,VALID,27.6794,VALID,288,VALID,0.468941,
2008-09-14, 11:00:00,VALID,918.681,VALID,0,VALID,72.5374,VALID,624.521,VALID,27.4878,VALID,233,VALID,0.45694,